Orbital elements:
2021 KG                                                  Earth MOID = 0.0024 AU
Epoch 2020 Dec. 17.0 TT = JDT 2459200.5                 Veres                   
M 311.45984              (2000.0)            P               Q                  
n   0.31651466     Peri.  181.73967     -0.51808201     +0.84946740             
a   2.1324237      Node    57.06880     -0.78330531     -0.42425314             
e   0.5239374      Incl.    6.84135     -0.34354596     -0.31371070             
P   3.11           H   27.84          G   0.15           U   6                  
Residuals in seconds of arc
210516 K88  0.7+  0.9-    210516 K88  0.8-  0.5-    210516 K88  0.4-  0.2-
210516 K88  0.2+  0.2+    210516 K88  0.1-  0.6-    210516 K88  0.1+  0.4-
210516 K88  0.8+  0.8-    210516 K88  0.8-  0.5+    210516 K88  0.7-  0.1-
210516 K88  0.2-  0.4-    210516 K88  0.2+  1.4-    210517 Y00  1.9+  0.6-
210516 K88  0.2+  0.5-    210516 K88  0.3+  0.9-    210517 Y00  2.2+  1.0+
210516 K88  0.3+  0.3-    210516 Y00  1.4+  1.7-    210517 K88  0.7-  0.0
210516 K88  1.5+  1.4-    210516 Y00  1.9+  0.7-    210517 K88  0.3-  0.0
210516 K88  1.9-  1.0+    210516 Y00  2.4+  0.4-    210517 K88  0.4-  0.4-
210516 K88  0.4+  0.5+    210516 K88  0.8-  0.3+    210517 K88  0.5-  0.2+
210516 K88  0.2+  1.0-    210516 K88  0.2-  0.3-    210517 K88  0.3+  0.0
210516 K88  0.6+  0.7-    210516 K88  0.9-  0.1+    210517 K88  0.2-  0.6-
210516 K88  0.8-  0.5-    210516 K88  1.1-  0.3+    210517 K88  0.4-  0.4-
210516 K88  0.4-  0.6-    210516 K88  1.6-  0.9+    210517 858 (1.7+  1.1-)
210516 K88  0.4-  0.2+    210516 K88  1.0-  0.2+    210517 858 (1.8+  0.8-)
210516 K88  0.3+  0.3-    210516 K88  0.8-  0.4+    210517 858 (1.7+  0.9-)
210516 K88  0.4+  0.1+    210516 K88  0.7-  0.0     210517 654  0.1-  0.5+
210516 K88  0.8-  0.6+    210516 K88  0.9-  0.3+    210517 654  0.2-  0.4+
210516 K88  1.5-  1.0+    210516 K88  0.8-  0.3-    210517 654  0.1+  0.2+
210516 K88  0.1-  0.1-    210516 I93  1.2+  0.5-    210517 654  0.0   0.1+
210516 K88  1.2-  0.3+    210516 I93  0.7+  0.1-    210517 H01  0.1+  0.2-
210516 K88  0.2-  0.4-    210516 K88  0.5-  0.8-    210517 H01  0.0   0.1-
210516 K88  0.6+  0.4-    210516 K88  0.1-  0.9-    210517 H01  0.3+  0.6-
210516 K88  0.1+  0.3-    210516 I93  0.8+  0.9-    210517 H01  0.1-  0.1-
210516 K88  0.9+  0.2-    210516 K88  1.3-  0.5+    210518 L01  0.6-  0.4-
210516 K88  0.1-  0.2-    210516 K88  0.8-  0.1+    210518 L01  0.3-  0.0
210516 K88  1.6-  1.3+    210516 K88  0.6-  0.1-    210518 L01  0.0   0.7-
210516 K88  0.9-  0.4+    210516 K88  1.5-  0.6+    210518 L01  0.2+  0.1+
210516 K88  0.7-  0.1+    210516 K88  0.7-  0.1+    210518 L01  0.3-  0.6+
210516 K88  0.5+  0.2-    210516 K88  0.0   0.1-

Ephemeris:
2021 KG                  a,e,i = 2.13, 0.52, 7                   q = 1.0152
Date    TT    R. A. (2000) Decl.     Delta      r    Elong.  Phase     V
2021 04 18    11 41 11.9 +37 34 25   0.1351  1.0851   123.8    50.2    25.5
...
2021 05 03    11 43 38.7 +38 34 53   0.06719 1.0349   111.9    64.7    24.3
...
2021 05 11    12 04 15.5 +37 43 19   0.03032 1.0204   109.2    69.2    22.7
...
2021 05 17    15 43 46.8 +07 34 53   0.0047391.0155   153.1    26.8    17.5
2021 05 18    18 48 42.0 -27 42 27   0.0051321.0152   136.0    43.8    18.1
2021 05 19    20 49 52.2 -38 40 25   0.0086191.0150   112.3    67.3    19.9
...
2021 05 25    22 51 01.1 -40 36 15   0.03575 1.0169    95.5    82.5    23.5
...
2021 06 02    23 09 10.0 -40 14 01   0.07237 1.0277    98.7    77.3    24.9
...
2021 06 17    23 12 21.3 -40 24 24   0.1378  1.0714   110.2    62.8    25.9

M. P. C. Staff               (C) Copyright 2021 MPC           M.P.E.C. 2021-K24




More information about the Iaude mailing list